Regional Weather Roundup
Issued by NWS

Home | Current Version | Previous Version | Text Only | Print | Product List | Glossary On
Versions: 1 2 3 4 5 6 7 8 9 10 11 12 13 14 15 16 17 18 19 20 21 22 23 24 25 26 27 28 29 30 31 32 33 34 35 36 37 38 39 40 41 42 43 44 45 46 47 48 49 50
000
ASUS43 KDTX 200201
RWRMI
MICHIGAN HOURLY REGIONAL WEATHER ROUNDUP
NATIONAL WEATHER SERVICE DETROIT/PONTIAC MI
900 PM EST SUN NOV 19 2017

NOTE: "FAIR" INDICATES FEW OR NO CLOUDS BELOW 12,000 FEET WITH NO
SIGNIFICANT WEATHER AND/OR OBSTRUCTION TO VISIBILITY.

MIZ047>049-052>055-059>063-066>070-074>076-081>083-200300-
SOUTHEAST LOWER MICHIGAN

CITY           SKY/WX    TMP DP  RH WIND       PRES   REMARKS
ADRIAN         PTCLDY    30  20  66 W7        30.01R WCI  23
ALMA           CLEAR     27  20  77 SW5       29.97S WCI  21
ANN ARBOR      PTCLDY    29  19  66 W9        29.97S WCI  20
BAD AXE        CLOUDY    28  16  59 NW15G22   29.92R WCI  17
CARO           CLOUDY    29  20  68 W15       29.93S WCI  18
DETROIT CITY   CLOUDY   N/A N/A N/A W7        29.97R
DETROIT        CLOUDY    31  19  61 W16G23    29.98R WCI  20
FLINT          MOCLDY    28  18  66 W16       29.97R WCI  16
GROSSE ILE     MOCLDY    32  20  62 W13G22    29.98S WCI  22
HILLSDALE      CLOUDY    30  21  69 W8        29.98S WCI  23
HOWELL         CLOUDY    29  22  74 W10       29.96S WCI  20

CITY           SKY/WX    TMP DP  RH WIND       PRES   REMARKS
JACKSON        CLEAR     27  20  75 SW7       29.98S WCI  19
LAMBERTVILLE   MOCLDY    33  22  63 W8        30.01S WCI  26
LANSING        CLOUDY    29  21  72 W8        29.98S WCI  21
LAPEER         CLOUDY    29  18  62 W13G22    29.95R WCI  19
MASON          PTCLDY    30  22  70 W5        29.98R WCI  25
MONROE         PTCLDY    32  20  61 W10       29.99S WCI  24
MT. CLEMENS    MOCLDY    30  18  60 W12       29.94R WCI  21
PONTIAC        MOCLDY    28  18  66 W22       29.94R WCI  14
PORT HOPE        N/A     30  16  56 W12G20    29.89R WCI  20
PORT HURON     MOCLDY    30  16  55 W7        29.95R WCI  23
TRI CITIES     MOCLDY    28  19  69 W12       29.96R WCI  18
MIDLAND        FAIR      28  18  66 W5        29.95R WCI  23
TROY           CLOUDY    33  20  59 W12G17    29.98R WCI  24
SAGINAW HB     PTCLDY    28  19  69 W9        29.95S WCI  20
$$
MIZ043>046-050>051-056>058-064>065-071>073-077>080-200300-
SOUTHWEST LOWER MICHIGAN

CITY           SKY/WX    TMP DP  RH WIND       PRES   REMARKS
BATTLE CREEK   CLOUDY    29  22  75 SW8       30.00R WCI  21
BENTON HARBOR  PTCLDY    35  20  54 W12       30.04S WCI  27
BIG RAPIDS     CLOUDY    28  20  72 W10       29.93S WCI  18
COLDWATER      CLOUDY    30  22  73 W9        30.01R WCI  21
FREMONT        FAIR      29  22  74 W3        29.96S
HOLLAND        CLOUDY    34  21  59 W13       30.01R WCI  25
GRAND RAPIDS   MOCLDY    29  23  78 SW6       29.98S WCI  23
IONIA          FAIR      28  22  79 SW6       29.97R WCI  21
KALAMAZOO      CLOUDY    28  20  71 SW5       30.01S WCI  23
LUDINGTON      CLOUDY    32  16  51 W7        29.95S WCI  26
MARSHALL       CLOUDY    28  21  75 SW8       29.99S WCI  20
MOUNT PLEASANT CLEAR     27  18  69 SW3       29.94S
MUSKEGON       CLOUDY    34  19  54 W14       29.99R WCI  25
SOUTH HAVEN    CLOUDY    36  22  57 W14       30.03R WCI  27
$$
MIZ016>042-200300-
NORTHERN LOWER MICHIGAN

CITY           SKY/WX    TMP DP  RH WIND       PRES   REMARKS
ALPENA         CLOUDY    28  23  81 W6        29.86S WCI  22
BEAVER ISLAND  CLOUDY    28  15  58 W12G21    29.88S WCI  18
BELLAIRE       CLOUDY    30  22  72 SW3       29.90S
CADILLAC       MOCLDY    24  18  78 W6        29.89R WCI  17
CHARLEVOIX     CLOUDY    31  19  62 W15G22    29.91R WCI  20
FRANKFORT      CLOUDY    33  18  53 W12G20    29.93S WCI  24
GAYLORD        CLOUDY    24  16  71 W12       29.83S WCI  13
GRAYLING       CLOUDY    24  17  72 W7        29.87F WCI  16
HARBOR SPRINGS CLOUDY    30  17  59 W12G18    29.86S WCI  20
MANISTEE       CLOUDY    32  18  56 W13       29.94R WCI  22
OSCODA         CLOUDY    28  18  65 W9        29.89S WCI  19
PELLSTON       CLOUDY    28  17  63 W9        29.86S WCI  19
ROGERS CITY    CLOUDY    29  18  63 W9G18     29.85S WCI  21
TRAVERSE CITY  CLOUDY    28  19  69 SW5       29.91R WCI  23
$$
MIZ007>008-015-200300-
EASTERN UPPER MICHIGAN

CITY           SKY/WX    TMP DP  RH WIND       PRES   REMARKS
KINROSS        FLURRIES  24  17  74 W15       29.81S WCI  11
MACKINAC ISLAN CLOUDY    30  17  57 W15G26    29.83S WCI  19
NEWBERRY       CLOUDY    23  16  74 SW17      29.82S WCI   9
S. S. MARIE    FLURRIES  26  21  81 W14G24    29.78S WCI  14
MUNISING         N/A     24  15  68 SW9       29.86S WCI  14
$$
MIZ004>006-011>014-085-200300-
CENTRAL UPPER MICHIGAN

CITY           SKY/WX    TMP DP  RH WIND       PRES   REMARKS
MANISTIQUE     CLOUDY    23   8  53 SW5       29.88S WCI  17
ESCANABA       CLOUDY    25  16  68 CALM      29.90S
MENOMINEE      CLOUDY    28  15  58 W5        29.92S WCI  23
SAWYER-GWINN   CLOUDY    21  14  73 SW6       29.84S WCI  14
$$
MIZ001>003-009>011-084-200300-
WESTERN UPPER MICHIGAN

CITY           SKY/WX    TMP DP  RH WIND       PRES   REMARKS
IRON MOUNTAIN  CLOUDY    24  13  62 W5        29.84F WCI  18
HOUGHTON       CLOUDY    23  15  71 W8        29.80S WCI  14
COPPER HARBOR    N/A     29  16  58 NW14G25   29.81S WCI  18
IRONWOOD       CLOUDY   N/A N/A N/A CALM      29.84F
$$

ABBREVIATIONS USED IN REMARKS
   TC - TEMPERATURE IN CELSIUS
  WCI - WIND CHILL INDEX
   HX - HEAT INDEX
  VSB - VISIBILITY




USA.gov is the U.S. government's official web portal to all federal, state and local government web resources and services.